Volver al catálogo

SCH-619

ActivoComunicacionesSSO
NORAD 67271·PAYLOAD·🇷🇺 Russia
Este nombre de satélite aún no ha sido confirmado por fuentes oficiales.

Lanzado Dec 28, 2025 desde Vostochny Cosmodrome

Loading…

Próximos Pases (próximas 24 horas)

TLE

ActualizadoSource: Space-Track

Época: Sep 14, 2026, 12:14 UTC

1 67271U 25313Z   26257.51029843  .00003283  00000-0  14550-3 0  9995
2 67271  97.3866 330.4001 0015926  52.7771 307.4916 15.22208441 39525

Sigue SCH-619 en tiempo real con AllMySat

Download on the App Store